Regional Weather Roundup
Issued by NWS

Home | Current Version | Previous Version | Text Only | Print | Product List | Glossary On
Versions: 1 2 3 4 5 6 7 8 9 10 11 12 13 14 15 16 17 18 19 20 21 22 23 24 25 26 27 28 29 30 31 32 33 34 35 36 37 38 39 40 41 42 43 44 45 46 47 48 49 50
324
ASUS46 KSTO 291415
RWRCA

NORTHERN AND CENTRAL CA REGIONAL WEATHER ROUNDUP
NATIONAL WEATHER SERVICE SACRAMENTO CA
700 AM PDT MON AUG 29 2016

NOTE: FAIR INDICATES FEW OR NO CLOUDS BELOW 12,000 FEET WITH NO
SIGNIFICANT WEATHER AND/OR OBSTRUCTIONS TO VISIBILITY.

CAZ001-003-291500-
NORTHWEST AREA

CITY           SKY/WX    TMP DP  RH WIND       PRES   REMARKS
CRESCENT CITY  CLOUDY    54  53  97 CALM      30.12R
UKIAH          MOCLDY    52  50  93 CALM      30.09S
$$

CAZ006-505>513-291500-
BAY AREA

CITY           SKY/WX    TMP DP  RH WIND       PRES   REMARKS
SANTA ROSA     CLOUDY    56  53  90 CALM      30.08S
SAN RAFAEL     N/A       57  MM  MM MISG
NAPA           CLOUDY    56  52  86 N7        30.09R
CONCORD        CLOUDY    58  50  75 W12       30.09R
OAKLAND CITY   N/A       59  MM  MM MISG
OAKLAND        CLOUDY    60  53  77 W12       30.10S
SAN FRAN CITY  N/A       56  MM  85 MISG
SAN FRAN ARPT  CLOUDY    59  51  75 W9        30.10R
LIVERMORE      CLOUDY    58  52  80 W7        30.09R
HAYWARD        CLOUDY    60  50  69 W7        30.10R
REDWOOD CITY   N/A       57  MM  80 MISG
MOFFETT ARPT   CLOUDY    59  51  75 NW5       30.11R
SAN JOSE ARPT  CLOUDY    60  53  77 W10       30.10R
$$
CAZ034-037-514>518-291500-
CENTRAL COAST

CITY           SKY/WX    TMP DP  RH WIND       PRES   REMARKS
WATSONVILLE    FOG       54  54 100 SW3       30.09R VSB 1/4
SALINAS        CLOUDY    58  55  90 SW8       30.08R
MONTEREY       CLOUDY    57  54  89 W8        30.10R
SAN LUIS OBISP CLOUDY    59  56  89 NW12      30.03R
SANTA MARIA    CLOUDY    54  54 100 S8        30.03R FOG
$$
CAZ015-016-291500-
NORTHERN SACRAMENTO VALLEY

CITY           SKY/WX    TMP DP  RH WIND       PRES   REMARKS
REDDING        MOCLDY    62  45  53 CALM      30.04R
RED BLUFF      PTCLDY    61  47  59 NW3       30.05R
OROVILLE       MOCLDY    59  51  75 CALM      30.05R
$$
CAZ016>018-291500-
SOUTHERN SACRAMENTO VALLEY

CITY           SKY/WX    TMP DP  RH WIND       PRES   REMARKS
AUBURN         PTCLDY    63  41  45 E5        30.07S
BEALE AFB      PTCLDY    57  45  65 SW6       30.02R
LINCOLN        FAIR      59  50  72 S7        30.02S
MARYSVILLE     PTCLDY    56  50  80 CALM      30.05R
SAC INTL ARPT  PTCLDY    57  51  80 S9        30.03R
MATHER AIRPORT CLEAR     52  50  93 SE6       30.04S
DOWNTOWN SAC   N/A       58  MM  MM MISG
SAC EXEC ARPT  CLEAR     56  51  84 S8        30.04R
VACAVILLE      CLEAR     56  47  71 CALM      30.04R
TRAVIS AFB     CLEAR     55  52  89 SW22      30.02R
$$
CAZ019>021-291500-
SAN JOAQUIN VALLEY

CITY           SKY/WX    TMP DP  RH WIND       PRES   REMARKS
STOCKTON       CLEAR     56  53  90 NW6       30.04R
MODESTO        CLEAR     60  53  77 N7        30.03R
MERCED         CLEAR     59  54  83 NW6       30.02R
LEMOORE        PTCLDY    62  50  64 NW7       30.02R
FRESNO         PTCLDY    65  54  67 CALM      30.02R
HANFORD        CLEAR     64  54  69 NW6       30.02R
PORTERVILLE    CLEAR     63  55  75 SW6       30.04R
BAKERSFIELD    CLEAR     72  54  53 SE3       30.03R
$$
CAZ011-012-071-291500-
NORTHERN MOUNTAINS

CITY           SKY/WX    TMP DP  RH WIND       PRES   REMARKS
YREKA          PTCLDY    56  36  47 NE7       30.12R
MOUNT SHASTA   CLOUDY    53  36  52 E3        30.16S
ALTURAS        CLOUDY    43  26  51 CALM      30.23S
$$
CAZ011-012-071-291500-
SIERRA NEVADA MTNS

CITY           SKY/WX    TMP DP  RH WIND       PRES   REMARKS
BLUE CANYON    MOCLDY    66  23  19 E3        30.29R
TRUCKEE        MOCLDY    30  25  80 CALM      30.36R
TAHOE VLY ARPT CLEAR     37  27  67 CALM      30.35S
MAMMOTH LAKES  FAIR      42  19  39 N5        30.42R
$$




USA.gov is the U.S. government's official web portal to all federal, state and local government web resources and services.